This is the latest recevied weather packets stored in our database for station/object E7HQ-1. If no packets are shown the sender has not sent any weather packets the latest 10 day(s).
| Time | Temp. | Humidity | Pressure | Rain* | Wind** | Luminosity | Snow |
|---|---|---|---|---|---|---|---|
| 1777614119 | 6.67° C | 35% | 1033.7 hPa | - | - | - | - |
| 1777613218 | 5.56° C | 37% | 1033.7 hPa | - | - | - | - |
| 1777612318 | 5° C | 37% | 1033.6 hPa | - | - | - | - |
| 1777611418 | 4.44° C | 38% | 1033.6 hPa | - | - | - | - |
| 1777610518 | 4.44° C | 38% | 1033.5 hPa | - | - | - | - |
| 1777609618 | 4.44° C | 40% | 1033.6 hPa | - | - | - | - |
| 1777608717 | 3.89° C | 39% | 1033.5 hPa | - | - | - | - |
| 1777607817 | 3.89° C | 39% | 1033.4 hPa | - | - | - | - |
| 1777606917 | 3.89° C | 39% | 1033.4 hPa | - | - | - | - |
| 1777606017 | 3.89° C | 39% | 1033.4 hPa | - | - | - | - |
| 1777605117 | 3.89° C | 39% | 1033.4 hPa | - | - | - | - |
| 1777604216 | 3.89° C | 39% | 1033.3 hPa | - | - | - | - |
| 1777603316 | 3.89° C | 39% | 1033.3 hPa | - | - | - | - |
| 1777602416 | 3.89° C | 39% | 1033.4 hPa | - | - | - | - |
| 1777601515 | 3.89° C | 39% | 1033.6 hPa | - | - | - | - |
| 1777600615 | 4.44° C | 39% | 1033.7 hPa | - | - | - | - |
| 1777599715 | 4.44° C | 38% | 1033.7 hPa | - | - | - | - |
| 1777598815 | 4.44° C | 38% | 1033.7 hPa | - | - | - | - |
| 1777597915 | 4.44° C | 38% | 1033.6 hPa | - | - | - | - |
| 1777597014 | 4.44° C | 38% | 1033.6 hPa | - | - | - | - |
| 1777596114 | 4.44° C | 38% | 1033.7 hPa | - | - | - | - |
| 1777595213 | 4.44° C | 38% | 1033.8 hPa | - | - | - | - |
| 1777594317 | 4.44° C | 37% | 1033.8 hPa | - | - | - | - |
| 1777593417 | 5° C | 36% | 1033.8 hPa | - | - | - | - |
| 1777592517 | 5° C | 36% | 1033.8 hPa | - | - | - | - |
* Rain since midnight (hover to see other rain measurements)
** Current wind speed in m/s (hover to see current wind gust speed)